Location: Zagreb
(45.8000°N, 16.0000°E)
Time: 21:09:35
(UTC+01:00)

deb Explorer IX - Pass Details

Date: 11 October 2020
Orbit: 537 x 1106 km, 38.8° (Epoch: 30 October)

Event Time Altitude Azimuth Distance (km) Brightness Sun altitude
Rises 13:49:21 0° 239° (WSW) 3,841 ? 34.8°
Reaches altitude 10° 13:52:22 10° 232° (SW) 2,831 ? 34.7°
Maximum altitude 13:58:36 38° 167° (SSE) 1,422 ? 34.2°
Drops below altitude 10° 14:04:07 10° 101° (ESE) 2,498 ? 33.9°
Sets 14:06:38 0° 94° (E) 3,342 ? 33.7°
